[Date Prev][Date Next][Thread Prev][Thread Next] - [Date Index][Thread Index][Author Index]
2 Line ISS Keps 5-26
- Subject: [sarex] 2 Line ISS Keps 5-26
- From: "Dave Larsen PhD" <doc@xxxxxxxxxxx>
- Date: Wed, 26 May 2004 04:19:02 -0700
ISS
1 25544U 98067A 04147.31278193 .00013908 00000-0 12571-3 0 8595
2 25544 51.6328 77.2153 0006122 153.9964 349.8160 15.68408839314887
----
Via the sarex mailing list at AMSAT.ORG courtesy of AMSAT-NA.
To unsubscribe, send "unsubscribe sarex" to Majordomo@amsat.org
AMSAT Home